BEIDOU-2 IGSO-1

Last updated on Thu Jul 09 2026 00:03:04 GMT+0000 (Coordinated Universal Time)

1 36828U 10036A 26188.62304566 -.00000058 00000+0 00000+0 0 9996 2 36828 54.3062 162.7756 0059224 225.1869 229.2421 1.00266308 58302
UTC large
Height (km)
Speed (km/s)
/
Latitude / Longitude
Inclination (degrees)
Orbital Period (minutes)
Azimuth
Elevation
Range (km)
Doppler Factor

Next 0 passes for location: London (51.5072 / 0.1276)

No passes found over London.
BEIDOU-2 IGSO-1